SKYSAT-C11 (42987 NORAD) Tracking and Keplerian Element Data

This shows tracking and keplerian element data for the satellite.

Feedback or suggestion? Click here.




ElementValue
Catalog42987
NameSKYSAT-C11
Epoch Orbit3994
Epoch Day202.90821362
Epoch Year2018
RAAN316.3044
Inclination97.4064
Eccentricity0.000876
Argument of Perigee310.3913
Mean Anonmoly49.6557
Mean Motion15.21448142
Decay Rate4.61E-06
L11 42987U 17068A 18202.90821362 .00000461 00000-0 23609-4 0 9991
L22 42987 97.4064 316.3044 0008760 310.3913 49.6557 15.21448142 39947

Live tracking and technical data element details for SKYSAT-C11 (NORAD 42987). SKYSAT-C11 can be tracked NOW for your location showing map with azimuth and elevation plus other details from your city location.

Track the satellite on the map from your city or location and see movement details for azimuth, elevation, latitude, longitude, range, height, and movement on the map or in text.







IsCatalogInMostPopularTable: catalog: 42987, numindb: 81
Update: records affected: 1



GetName: 42987 SKYSAT-C11

Hit Count: updated at: Mon, 23 Jul 2018 07:54:34 GMT